World > North America > United States > New York

Hourly Northfield, NY Regional Weather

Feedback E-mail the Weather

Latest News

Northfield, NY Weather Maps

°F °C°F °C
Northfield Weather Map
UTC Time: 5/27/2022, 06:39
Your Time:

Northfield, NY Regional Weather

Expires:202205270700;;636520
ASUS41 KBGM 270610
RWRBGM

REGIONAL WEATHER ROUNDUP
NATIONAL WEATHER SERVICE BINGHAMTON NY
200 AM EDT FRI MAY 27 2022

Note: "fair" indicates few or no clouds below 12,000 feet with no
significant weather and/or obstructions to visibility.

* = Station(s) that does not report precipitation, such as rain, 
snow, etc, also no thunder or fog.


NYZ009-015>018-022>025-036-037-044>046-055>057-062-270700
...Central New York...
  
CITY           SKY/WX    TMP DP  RH WIND       PRES   REMARKS
Binghamton     CLOUDY    63  59  87 S12G20    29.97F                  
Cortland       CLOUDY    64  59  82 SW9       29.94F                  
Dansville      CLOUDY    70  60  70 SE13G21   29.88F                  
Elmira         CLOUDY    69  60  73 S9        29.93F                  
Ithaca         CLOUDY    67  62  84 SE12      29.94F                  
Hamilton       MOCLDY    64  57  77 S14       29.96S                  
Monticello     CLOUDY    61  60  97 VRB3      30.05F FOG              
Norwich        CLOUDY    64  59  82 S7        29.99F                  
Oneonta        CLEAR     63  59  88 SW5       30.00F                  
Penn Yan       CLOUDY    68  59  73 S13       29.90F                  
Rome           CLOUDY    69  59  70 SE6       29.94F                  
Seneca Falls   RAIN      64  59  82 S8        29.89F                  
Sidney         CLOUDY    66  61  82 SW5       29.98F                  
Skaneateles    LGT RAIN  66  64  94 VRB7G16   29.90F                  
Syracuse       LGT RAIN  68  60  75 S14       29.89F                  
$$
 

SKY/WX - Weather  TMP - Temperature  DP - Dew Point  RH - Humidity
WIND - Wind Direction/Speed PRES - Barometric Pressure VSB - Visibility
WCI - Wind Chill Index E13G22 Wind - East Wind 13 mph/Gusts of 22 mph

Trending Headlines

Northfield Radar Loop



Northfield Quick Facts


National Two Day Weather Forecast


E-mail the Northfield Weather Forecast

Voice your opinion or tell us about page issues...